CW9533 Torre Faro Messina IT current weather conditions

sailwx.info

Wind from 051 at 1 knots gusting 6

Air temperature 25.6° C
Dewpoint 19.4° C

Last reported at 2015-Aug-30 23:50 UTC.
Time now 2015-Aug-31 00:39 UTC

Location: N 38°16' E 015°39'.
View on Google Maps.

See reports from other nearby stations

  
Tides and Currents Weather Stations Pressure Air Temp Water Temp Dewpoint Dewpoint Depression Visibility Wind Speed Wind Dir Waves Ship Positions
date/time (UTC)wind fromknots sea level pressurealtimeterstation pressurevisibilityair tempwater tempwave heightnotes
2015-Aug-30 23:50 051 1 gusting 6 25.6
2015-Aug-30 23:35 051 1 gusting 6 26.1
2015-Aug-30 23:20 051 25.6
2015-Aug-30 23:05 051 0 gusting 3 25.6
2015-Aug-30 22:50 051 26.1
2015-Aug-30 22:34 051 26.1
2015-Aug-30 22:19 051 26.1
2015-Aug-30 22:04 051 26.1
2015-Aug-30 21:49 051 0 gusting 1 26.7
2015-Aug-30 21:34 051 0 gusting 4 26.7
2015-Aug-30 21:19 051 26.7
2015-Aug-30 21:04 051 26.7
2015-Aug-30 20:49 051 1 gusting 4 26.7
2015-Aug-30 20:34 051 0 gusting 3 26.7
2015-Aug-30 20:19 051 26.1
2015-Aug-30 20:04 051 1 gusting 5 26.1
2015-Aug-30 19:49 051 2 gusting 5 26.7
2015-Aug-30 19:34 051 1 gusting 5 26.1
2015-Aug-30 19:19 051 2 gusting 5 26.1
2015-Aug-30 19:04 051 3 gusting 6 26.1
2015-Aug-30 18:49 051 3 gusting 6 26.1
2015-Aug-30 18:34 051 2 gusting 6 26.1
2015-Aug-30 18:19 051 2 gusting 6 26.7
2015-Aug-30 18:04 051 3 gusting 6 26.7
2015-Aug-30 17:49 051 4 gusting 6 26.7
2015-Aug-30 17:34 051 1 gusting 8 26.7
2015-Aug-30 17:19 061 2 gusting 8 27.2
2015-Aug-30 17:04 059 3 gusting 6 27.2
2015-Aug-30 16:49 058 2 gusting 6 27.2
2015-Aug-30 16:34 058 2 gusting 6 27.8
2015-Aug-30 16:19 057 4 gusting 6 27.8
2015-Aug-30 16:04 055 2 gusting 6 27.8
2015-Aug-30 15:49 053 2 gusting 6 27.8
2015-Aug-30 15:34 053 1 gusting 6 27.8
2015-Aug-30 15:19 051 2 gusting 6 28.3
2015-Aug-30 15:04 052 2 gusting 6 28.3
2015-Aug-30 14:49 058 3 gusting 6 28.3
2015-Aug-30 14:34 063 3 gusting 11 28.3
2015-Aug-30 14:19 059 4 gusting 10 28.3
2015-Aug-30 14:04 046 5 gusting 9 28.9
2015-Aug-30 13:49 073 6 gusting 13 28.9
2015-Aug-30 13:34 067 5 gusting 11 28.3
2015-Aug-30 13:19 046 6 gusting 11 28.3
2015-Aug-30 13:04 046 5 gusting 12 28.3
2015-Aug-30 12:49 064 6 gusting 13 27.8
2015-Aug-30 12:34 044 6 gusting 14 27.8
2015-Aug-30 12:19 061 6 gusting 12 28.3
2015-Aug-30 12:04 048 6 gusting 13 28.3
2015-Aug-30 11:49 070 7 gusting 13 27.8
2015-Aug-30 11:34 058 7 gusting 13 27.8
2015-Aug-30 11:19 069 5 gusting 13 28.3
2015-Aug-30 11:04 068 6 gusting 14 27.8
2015-Aug-30 10:49 057 4 gusting 13 28.3
2015-Aug-30 10:34 061 3 gusting 11 28.3
2015-Aug-30 10:19 047 5 gusting 11 28.3
2015-Aug-30 10:04 067 5 gusting 13 27.8
2015-Aug-30 09:49 052 7 gusting 19 27.8
2015-Aug-30 09:34 071 5 gusting 14 27.8
2015-Aug-30 09:19 065 7 gusting 13 27.2
2015-Aug-30 09:04 065 8 gusting 13 27.2
2015-Aug-30 08:49 055 6 gusting 13 27.2
2015-Aug-30 08:34 071 5 gusting 13 27.2
2015-Aug-30 08:19 075 5 gusting 12 27.2
2015-Aug-30 08:04 067 6 gusting 13 27.2
2015-Aug-30 07:49 062 6 gusting 13 27.2
2015-Aug-30 07:34 067 6 gusting 12 27.2
2015-Aug-30 07:19 065 6 gusting 13 27.2
2015-Aug-30 07:04 063 6 gusting 13 26.7
2015-Aug-30 06:49 061 4 gusting 10 26.7
2015-Aug-30 06:34 055 5 gusting 10 26.7
2015-Aug-30 06:19 043 4 gusting 9 26.7
2015-Aug-30 06:04 046 5 gusting 12 26.7
2015-Aug-30 05:49 031 5 gusting 10 26.7
2015-Aug-30 05:34 028 2 gusting 11 26.7
2015-Aug-30 05:19 027 3 gusting 11 26.1
2015-Aug-30 05:04 042 5 gusting 10 26.1
2015-Aug-30 04:49 047 1 gusting 7 26.1
2015-Aug-30 04:34 051 4 gusting 10 26.1
2015-Aug-30 04:19 053 4 gusting 11 26.1
2015-Aug-30 04:04 053 5 gusting 9 26.1
2015-Aug-30 03:49 064 4 gusting 10 26.1
2015-Aug-30 03:33 060 4 gusting 9 26.1
2015-Aug-30 03:18 055 5 gusting 10 26.1
2015-Aug-30 03:03 057 5 gusting 8 26.1
2015-Aug-30 02:48 059 4 gusting 8 26.7
2015-Aug-30 02:33 061 1 gusting 8 26.7
2015-Aug-30 02:18 059 4 gusting 8 26.7
2015-Aug-30 02:03 061 2 gusting 7 26.1
2015-Aug-30 01:48 059 3 gusting 7 26.1
2015-Aug-30 01:33 057 3 gusting 6 26.1
2015-Aug-30 01:18 058 3 gusting 9 26.1
2015-Aug-30 01:03 055 3 gusting 7 26.1
2015-Aug-30 00:48 055 5 gusting 10 26.1
2015-Aug-30 00:33 065 1 gusting 8 26.1
2015-Aug-30 00:18 062 1 gusting 8 25.6
2015-Aug-30 00:03 057 1 gusting 8 25.6
2015-Aug-29 23:48 053 4 gusting 8 25.6
2015-Aug-29 23:33 055 4 gusting 6 25.6
2015-Aug-29 23:18 055 3 gusting 7 25.6
2015-Aug-29 23:03 058 3 gusting 6 26.1
2015-Aug-29 22:48 058 3 gusting 6 26.1
2015-Aug-29 22:33 058 2 gusting 5 26.1
2015-Aug-29 22:18 058 26.1
2015-Aug-29 22:03 058 1 gusting 5 26.1
2015-Aug-29 21:48 058 2 gusting 6 26.1
2015-Aug-29 21:33 058 1 gusting 5 26.1
2015-Aug-29 21:18 058 2 gusting 5 26.1
2015-Aug-29 21:03 058 2 gusting 7 26.1
2015-Aug-29 20:48 060 4 gusting 9 26.1
2015-Aug-29 20:33 060 2 gusting 9 26.7
2015-Aug-29 20:18 058 3 gusting 6 26.1
2015-Aug-29 20:03 058 4 gusting 7 26.1
2015-Aug-29 19:48 059 3 gusting 8 26.1
2015-Aug-29 19:33 055 4 gusting 9 26.7
2015-Aug-29 19:18 058 3 gusting 7 26.1
2015-Aug-29 19:03 055 3 gusting 7 26.7
2015-Aug-29 18:48 055 2 gusting 6 26.7
2015-Aug-29 18:33 056 5 gusting 9 26.7
2015-Aug-29 18:18 057 5 gusting 7 26.7
2015-Aug-29 18:03 055 4 gusting 7 26.7
2015-Aug-29 17:48 056 4 gusting 7 26.7
2015-Aug-29 17:33 056 4 gusting 8 26.7
2015-Aug-29 17:18 055 4 gusting 8 27.2
2015-Aug-29 17:03 057 4 gusting 8 27.2
2015-Aug-29 16:48 061 2 gusting 8 27.8
2015-Aug-29 16:33 059 4 gusting 8 27.8
2015-Aug-29 16:18 065 2 gusting 8 27.8
2015-Aug-29 16:03 065 3 gusting 8 27.8
2015-Aug-29 15:48 064 3 gusting 8 28.3
2015-Aug-29 15:33 064 2 gusting 7 28.3
2015-Aug-29 15:18 088 3 gusting 11 28.9
2015-Aug-29 15:03 088 5 gusting 13 28.3
2015-Aug-29 14:48 071 3 gusting 9 28.9
2015-Aug-29 14:33 091 3 gusting 11 28.9
2015-Aug-29 14:18 088 3 gusting 12 29.4
2015-Aug-29 14:03 080 6 gusting 11 29.4
2015-Aug-29 13:48 067 3 gusting 9 29.4
2015-Aug-29 13:33 078 4 gusting 11 28.9
2015-Aug-29 13:18 077 5 gusting 13 28.9
2015-Aug-29 13:03 078 3 gusting 13 28.9
2015-Aug-29 12:48 085 6 gusting 13 28.9
2015-Aug-29 12:33 076 5 gusting 14 28.3
2015-Aug-29 12:18 106 6 gusting 15 28.3
2015-Aug-29 12:03 091 6 gusting 14 28.3
2015-Aug-29 11:48 081 5 gusting 10 28.9
2015-Aug-29 11:33 082 5 gusting 12 28.9
2015-Aug-29 11:17 074 5 gusting 14 28.3
2015-Aug-29 11:02 076 6 gusting 13 28.9
2015-Aug-29 10:47 069 6 gusting 13 28.3
2015-Aug-29 10:32 072 6 gusting 13 28.3
2015-Aug-29 10:17 073 5 gusting 12 28.9
2015-Aug-29 10:02 082 6 gusting 13 28.9
2015-Aug-29 09:47 074 5 gusting 12 28.3
2015-Aug-29 09:32 074 4 gusting 11 28.3
2015-Aug-29 09:17 076 6 gusting 13 28.3
2015-Aug-29 09:02 073 6 gusting 11 28.3
2015-Aug-29 08:47 077 5 gusting 14 28.3
2015-Aug-29 08:32 078 6 gusting 12 28.3
2015-Aug-29 08:17 066 6 gusting 13 27.8
2015-Aug-29 08:02 065 4 gusting 11 27.8
2015-Aug-29 07:47 062 5 gusting 10 27.8
2015-Aug-29 07:32 060 6 gusting 10 27.8
2015-Aug-29 07:17 055 5 gusting 10 27.2
2015-Aug-29 07:02 032 3 gusting 7 27.2
2015-Aug-29 06:47 028 5 gusting 12 27.2
2015-Aug-29 06:32 022 5 gusting 11 26.7
2015-Aug-29 06:17 023 5 gusting 8 26.7
2015-Aug-29 06:02 019 6 gusting 12 26.7
2015-Aug-29 05:47 011 6 gusting 8 26.1
2015-Aug-29 05:32 009 4 gusting 6 25.6
2015-Aug-29 05:17 009 4 gusting 8 25.6
2015-Aug-29 05:02 011 5 gusting 10 25.6
2015-Aug-29 04:47 010 4 gusting 8 25.6
2015-Aug-29 04:32 010 5 gusting 8 25.6
2015-Aug-29 04:17 009 5 gusting 10 25.6
2015-Aug-29 04:02 009 3 gusting 6 26.1
2015-Aug-29 03:47 009 6 gusting 9 26.1
2015-Aug-29 03:32 005 2 gusting 6 26.1
2015-Aug-29 03:17 005 1 gusting 10 26.1
2015-Aug-29 03:02 005 1 gusting 6 26.1
2015-Aug-29 02:47 005 2 gusting 6 26.1
2015-Aug-29 02:32 005 4 gusting 9 26.1
2015-Aug-29 02:17 360 5 gusting 9 26.1
2015-Aug-29 02:02 013 4 gusting 8 26.1
2015-Aug-29 01:47 015 3 gusting 7 26.1
2015-Aug-29 01:33 016 5 gusting 10 26.1
2015-Aug-29 01:17 022 5 gusting 9 26.1
2015-Aug-29 01:02 040 5 gusting 8 26.1
2015-Aug-29 00:47 042 1 gusting 7 26.1
2015-Aug-29 00:32 042 3 gusting 7 26.1
2015-Aug-29 00:17 043 5 gusting 8 26.7
2015-Aug-29 00:02 044 4 gusting 10 26.7